Flag for Belgium Weather past 2 weeks in Kortrijk, Belgium

45 °F


Feels Like: 45 °F
Forecast: 48 / 62 °F
Wind: No wind

Location: Lille Airport

Current Time: Oct 9, 2015 at 6:19:21 AM

Latest Report: Oct 9, 2015 at 5:30 AM

Visibility: N/A

Pressure: 30.18 "Hg

Humidity: 93%

Dew point: 43 °F

Location of KortrijkLocation

Historic Weather in Kortrijk — Graph


Kortrijk temperature yesterday

Maximum temperature yesterday: 61 °F (at 2:00 PM)
Minimum temperature yesterday: 45 °F (at 11:30 PM)
Average temperature yesterday: 55 °F

Past Weeks' High & Low Weather Summary

High70 °F (Oct 6, 4:30 PM)100% (Sep 25, 1:30 AM)30.60 "Hg (Sep 25, 1:30 AM)
Low41 °F (Oct 2, 8:00 AM)40% (Sep 30, 4:00 PM)29.50 "Hg (Oct 6, 12:00 PM)
Average55 °F77%30.15 "Hg
* Reported Sep 24 4:00 AM — Oct 9 4:30 AM, Kortrijk, Weather by CustomWeather, © 2015

Note: Actual official high and low records may vary slightly from our data, if they occured in-between our weather recording intervals... More about our weather records


Kortrijk weather history for previous 24 hours

Time TempWeatherWind HumidityBarometerVisibility
4:30 AM
Fri, Oct 9
45 °FPassing clouds.No wind93%30.18 "HgN/A
4:00 AM43 °FClear.No wind100%30.18 "Hg5 mi
3:30 AM43 °FClear.No wind93%30.18 "HgN/A
3:00 AM43 °FClear.No wind100%30.18 "Hg10 mi
2:30 AM43 °FClear.No wind100%30.18 "HgN/A
2:00 AM45 °FPassing clouds.No wind93%30.18 "HgN/A
1:30 AM45 °FPassing clouds.No wind93%30.18 "HgN/A
1:00 AM45 °FPassing clouds.No wind93%30.18 "HgN/A
12:30 AM46 °FPassing clouds.2 mph87%30.21 "HgN/A
11:30 PM
Thu, Oct 8
45 °FClear.No wind93%30.21 "Hg10 mi
11:00 PM46 °FClear.No wind87%30.21 "Hg10 mi
10:30 PM46 °FClear.1 mph93%30.18 "Hg10 mi
10:00 PM48 °FClear.No wind87%30.18 "Hg10 mi
9:30 PM50 °FClear.No wind82%30.18 "Hg10 mi
9:00 PM52 °FClear.2 mph77%30.18 "Hg10 mi
8:30 PM52 °FClear.2 mph77%30.18 "Hg10 mi
8:00 PM54 °FPassing clouds.3 mph72%30.18 "HgN/A
7:30 PM54 °FPassing clouds.6 mph72%30.18 "HgN/A
7:00 PM55 °FPassing clouds.8 mph67%30.15 "HgN/A
6:30 PM57 °FPassing clouds.8 mph63%30.15 "HgN/A
6:00 PM57 °FOvercast.9 mph63%30.15 "HgN/A
5:30 PM61 °FOvercast.9 mph59%30.15 "HgN/A
5:00 PM61 °FPartly sunny.7 mph55%30.15 "HgN/A
4:30 PM61 °FPartly sunny.9 mph55%30.15 "HgN/A
4:00 PM61 °FPartly sunny.7 mph55%30.15 "HgN/A
3:30 PM61 °FPartly sunny.5 mph52%30.15 "HgN/A
3:00 PM61 °FPartly sunny.8 mph59%30.15 "HgN/A
2:30 PM61 °FPartly sunny.9 mph52%30.15 "HgN/A
2:00 PM61 °FScattered clouds.8 mph55%30.15 "HgN/A
1:30 PM59 °FPassing clouds.9 mph59%30.15 "HgN/A
1:00 PM59 °FPassing clouds.8 mph63%30.15 "HgN/A
12:30 PM57 °FPassing clouds.8 mph63%30.15 "HgN/A
12:00 PM57 °FPassing clouds.7 mph67%30.15 "HgN/A
11:30 AM55 °FPassing clouds.5 mph77%30.15 "HgN/A
11:00 AM55 °FSunny.6 mph82%30.12 "Hg10 mi
10:30 AM55 °FSunny.5 mph82%30.12 "Hg10 mi
10:00 AM54 °FPassing clouds.3 mph94%30.12 "HgN/A
9:30 AM54 °FSunny.5 mph94%30.12 "Hg10 mi
9:00 AM54 °FPassing clouds.5 mph94%30.09 "HgN/A
8:30 AM54 °FOvercast.5 mph94%30.09 "Hg5 mi
8:00 AM54 °FFog.3 mph94%30.09 "Hg3 mi
7:30 AM54 °FClear.2 mph94%30.07 "Hg4 mi
7:00 AM54 °FClear.2 mph94%30.07 "Hg4 mi
6:30 AM54 °FOvercast.2 mph94%30.07 "Hg4 mi
Weather by CustomWeather, © 2015

See weather overviewHow to use our weather pages